Date,TemperatureHighF,TemperatureAvgF,TemperatureLowF,DewpointHighF,DewpointAvgF,DewpointLowF,HumidityHigh,HumidityAvg,HumidityLow,PressureMaxIn,PressureMinIn,WindSpeedMaxMPH,WindSpeedAvgMPH,GustSpeedMaxMPH,PrecipitationSumIn
2013-1-2,22,22,22,-100,-100,-100,0,0,100,0.00,40.00,0,-999,0,0.00
2013-1-3,28,23,20,-100,-100,-100,0,0,100,0.00,40.00,0,-999,0,0.00
2013-1-4,30,22,16,-100,-100,-100,0,0,100,0.00,40.00,0,-999,0,0.00
2013-1-5,29,25,23,-100,-100,-100,0,0,100,0.00,40.00,0,-999,0,0.00
2013-1-6,32,28,25,-100,-100,-100,0,0,100,0.00,40.00,0,-999,0,0.00
2013-1-7,44,31,23,-100,-100,-100,0,0,100,0.00,40.00,0,-999,0,0.00
2013-1-8,36,32,29,-100,-100,-100,0,0,100,0.00,40.00,0,-999,0,0.00
2013-1-9,34,29,25,-100,-100,-100,0,0,100,0.00,40.00,0,-999,0,0.00
2013-1-10,32,25,20,-100,-100,-100,0,0,100,0.00,40.00,0,-999,0,0.00
2013-1-11,27,17,8,-100,-100,-100,0,0,100,0.00,40.00,0,-999,0,0.00
2013-1-12,10,6,4,-100,-100,-100,0,0,100,0.00,40.00,0,-999,0,0.00
2013-1-13,22,12,4,-100,-100,-100,0,0,100,0.00,40.00,0,-999,0,0.00
2013-1-14,25,19,13,-100,-100,-100,0,0,100,0.00,40.00,0,-999,0,0.00
2013-1-15,20,15,9,-100,-100,-100,0,0,100,0.00,40.00,0,-999,0,0.00
2013-1-16,29,24,19,-100,-100,-100,0,0,100,0.00,40.00,0,-999,0,0.00
2013-1-17,31,25,22,-100,-100,-100,0,0,100,0.00,40.00,0,-999,0,0.00
2013-1-18,28,24,22,-100,-100,-100,0,0,100,0.00,40.00,0,-999,0,0.00
2013-1-19,24,20,16,-100,-100,-100,0,0,100,0.00,40.00,0,-999,0,0.00
2013-1-20,27,20,11,-100,-100,-100,0,0,100,0.00,40.00,0,-999,0,0.00
2013-1-21,24,19,14,-100,-100,-100,0,0,100,0.00,40.00,0,-999,0,0.00
2013-1-22,26,19,15,-100,-100,-100,0,0,100,0.00,40.00,0,-999,0,0.00
2013-1-23,29,24,20,-100,-100,-100,0,0,100,0.00,40.00,0,-999,0,0.00
2013-1-24,31,26,23,-100,-100,-100,0,0,100,0.00,40.00,0,-999,0,0.00
2013-1-25,30,24,18,-100,-100,-100,0,0,100,0.00,40.00,0,-999,0,0.00
2013-1-26,37,30,25,-100,-100,-100,0,0,100,0.00,40.00,0,-999,0,0.00
2013-1-27,32,29,28,-100,-100,-100,0,0,100,0.00,40.00,0,-999,0,0.00
2013-1-28,33,28,25,-100,-100,-100,0,0,100,0.00,40.00,0,-999,0,0.00
2013-1-29,45,30,22,-100,-100,-100,0,0,100,0.00,40.00,0,-999,0,0.00
2013-1-30,51,42,34,-100,-100,-100,0,0,100,0.00,40.00,0,-999,0,0.00
2013-1-31,41,34,30,-100,-100,-100,0,0,100,0.00,40.00,0,-999,0,0.00
2013-2-1,34,28,24,-100,-100,-100,0,0,100,0.00,40.00,0,-999,0,0.00
2013-2-2,32,24,20,-100,-100,-100,0,0,100,0.00,40.00,0,-999,0,0.00
2013-2-3,34,27,22,-100,-100,-100,0,0,100,0.00,40.00,0,-999,0,0.00
2013-2-4,38,31,27,-100,-100,-100,0,0,100,0.00,40.00,0,-999,0,0.00
2013-2-5,37,32,28,-100,-100,-100,0,0,100,0.00,40.00,0,-999,0,0.00
2013-2-6,42,34,24,-100,-100,-100,0,0,100,0.00,40.00,0,-999,0,0.00
2013-2-7,40,33,25,-100,-100,-100,0,0,100,0.00,40.00,0,-999,0,0.00
2013-2-8,30,24,19,-100,-100,-100,0,0,100,0.00,40.00,0,-999,0,0.00
2013-2-9,35,25,21,-100,-100,-100,0,0,100,0.00,40.00,0,-999,0,0.00
2013-2-10,35,25,21,-100,-100,-100,0,0,100,0.00,40.00,0,-999,0,0.00
2013-2-11,38,29,19,-100,-100,-100,0,0,100,0.00,40.00,0,-999,0,0.00
2013-2-12,41,34,28,-100,-100,-100,0,0,100,0.00,40.00,0,-999,0,0.00
2013-2-13,51,42,34,-100,-100,-100,0,0,100,0.00,40.00,0,-999,0,0.00
2013-2-14,47,35,28,-100,-100,-100,0,0,100,0.00,40.00,0,-999,0,0.00
2013-2-15,42,30,25,-100,-100,-100,0,0,100,0.00,40.00,0,-999,0,0.00
2013-2-16,45,34,24,-100,-100,-100,0,0,100,0.00,40.00,0,-999,0,0.00
2013-2-17,48,37,28,-100,-100,-100,0,0,100,0.00,40.00,0,-999,0,0.00
2013-2-18,42,31,23,-100,-100,-100,0,0,100,0.00,40.00,0,-999,0,0.00
2013-2-19,44,33,23,-100,-100,-100,0,0,100,0.00,40.00,0,-999,0,0.00
2013-2-20,37,27,20,-100,-100,-100,0,0,100,0.00,40.00,0,-999,0,0.00
2013-2-21,44,33,23,-100,-100,-100,0,0,100,0.00,40.00,0,-999,0,0.00
2013-2-22,46,36,29,-100,-100,-100,0,0,100,0.00,40.00,0,-999,0,0.00
2013-2-23,47,36,28,-100,-100,-100,0,0,100,0.00,40.00,0,-999,0,0.00
2013-2-24,45,36,30,-100,-100,-100,0,0,100,0.00,40.00,0,-999,0,0.00
2013-2-25,47,36,29,-100,-100,-100,0,0,100,0.00,40.00,0,-999,0,0.00
2013-2-26,50,41,33,-100,-100,-100,0,0,100,0.00,40.00,0,-999,0,0.00
2013-2-27,43,33,27,-100,-100,-100,0,0,100,0.00,40.00,0,-999,0,0.00
2013-2-28,42,36,32,-100,-100,-100,0,0,100,0.00,40.00,0,-999,0,0.00
2013-3-1,63,43,35,-100,-100,-100,0,0,100,0.00,40.00,0,-999,0,0.00
2013-3-2,54,40,34,-100,-100,-100,0,0,100,0.00,40.00,0,-999,0,0.00
2013-3-3,48,40,27,-100,-100,-100,0,0,100,0.00,40.00,0,-999,0,0.00
2013-3-4,49,34,22,-100,-100,-100,0,0,100,0.00,40.00,0,-999,0,0.00
2013-3-5,47,36,27,-100,-100,-100,0,0,100,0.00,40.00,0,-999,0,0.00
2013-3-6,38,35,32,-100,-100,-100,0,0,100,0.00,40.00,0,-999,0,0.00
2013-3-7,49,38,31,-100,-100,-100,0,0,100,0.00,40.00,0,-999,0,0.00
2013-3-8,52,36,29,-100,-100,-100,0,0,100,0.00,40.00,0,-999,0,0.00
2013-3-9,56,38,25,-100,-100,-100,0,0,100,0.00,40.00,0,-999,0,0.00
2013-3-10,57,45,35,-100,-100,-100,0,0,100,0.00,40.00,0,-999,0,0.00
2013-3-11,53,43,30,-100,-100,-100,0,0,100,0.00,40.00,0,-999,0,0.00
2013-3-12,60,45,37,-100,-100,-100,0,0,100,0.00,40.00,0,-999,0,0.00
2013-3-13,62,50,40,-100,-100,-100,0,0,100,0.00,40.00,0,-999,0,0.00
2013-3-14,59,48,38,-100,-100,-100,0,0,100,0.00,40.00,0,-999,0,0.00
2013-3-15,60,50,38,-100,-100,-100,0,0,100,0.00,40.00,0,-999,0,0.00
2013-3-16,57,44,34,-100,-100,-100,0,0,100,0.00,40.00,0,-999,0,0.00
2013-3-17,50,41,34,-100,-100,-100,0,0,100,0.00,40.00,0,-999,0,0.00
2013-3-18,49,37,25,-100,-100,-100,0,0,100,0.00,40.00,0,-999,0,0.00
2013-3-19,51,37,25,-100,-100,-100,0,0,100,0.00,40.00,0,-999,0,0.00
2013-3-20,49,40,34,-100,-100,-100,0,0,100,0.00,40.00,0,-999,0,0.00
2013-3-21,49,38,32,-100,-100,-100,0,0,100,0.00,40.00,0,-999,0,0.00
2013-3-22,46,35,26,-100,-100,-100,0,0,100,0.00,40.00,0,-999,0,0.00
2013-3-23,48,34,23,-100,-100,-100,0,0,100,0.00,40.00,0,-999,0,0.00
2013-3-24,50,35,22,-100,-100,-100,0,0,100,0.00,40.00,0,-999,0,0.00
2013-3-25,54,37,23,-100,-100,-100,0,0,100,0.00,40.00,0,-999,0,0.00
2013-3-26,60,42,25,-100,-100,-100,0,0,100,0.00,40.00,0,-999,0,0.00
2013-3-27,61,46,36,-100,-100,-100,0,0,100,0.00,40.00,0,-999,0,0.00
2013-3-28,63,49,31,-100,-100,-100,0,0,100,0.00,40.00,0,-999,0,0.00
2013-3-29,70,52,32,-100,-100,-100,0,0,100,0.00,40.00,0,-999,0,0.00
2013-3-30,69,53,30,-100,-100,-100,0,0,100,0.00,40.00,0,-999,0,0.00
2013-3-31,73,52,32,-100,-100,-100,0,0,100,0.00,40.00,0,-999,0,0.00
2013-4-1,76,59,34,-100,-100,-100,0,0,100,0.00,40.00,0,-999,0,0.00
2013-4-2,69,60,43,-100,-100,-100,0,0,100,0.00,40.00,0,-999,0,0.00
2013-4-3,68,55,36,-100,-100,-100,0,0,100,0.00,40.00,0,-999,0,0.00
2013-4-4,52,49,45,-100,-100,-100,0,0,100,0.00,40.00,0,-999,0,0.00
2013-4-5,62,51,37,-100,-100,-100,0,0,100,0.00,40.00,0,-999,0,0.00
2013-4-6,59,50,43,-100,-100,-100,0,0,100,0.00,40.00,0,-999,0,0.00
2013-4-7,53,43,35,-100,-100,-100,0,0,100,0.00,40.00,0,-999,0,0.00
2013-4-8,53,43,38,-100,-100,-100,0,0,100,0.00,40.00,0,-999,0,0.00
2013-4-9,60,49,30,-100,-100,-100,0,0,100,0.00,40.00,0,-999,0,0.00
2013-4-10,56,51,43,-100,-100,-100,0,0,100,0.00,40.00,0,-999,0,0.00
2013-4-11,59,48,36,-100,-100,-100,0,0,100,0.00,40.00,0,-999,0,0.00
2013-4-12,54,43,30,-100,-100,-100,0,0,100,0.00,40.00,0,-999,0,0.00
2013-4-13,53,44,32,-100,-100,-100,0,0,100,0.00,40.00,0,-999,0,0.00
2013-4-14,59,43,29,-100,-100,-100,0,0,100,0.00,40.00,0,-999,0,0.00
2013-4-15,49,38,31,-100,-100,-100,0,0,100,0.00,40.00,0,-999,0,0.00
2013-4-16,53,42,31,-100,-100,-100,0,0,100,0.00,40.00,0,-999,0,0.00
2013-4-17,58,46,25,-100,-100,-100,0,0,100,0.00,40.00,0,-999,0,0.00
2013-4-18,65,51,39,-100,-100,-100,0,0,100,0.00,40.00,0,-999,0,0.00
2013-4-19,63,54,42,-100,-100,-100,0,0,100,0.00,40.00,0,-999,0,0.00
2013-4-20,66,54,44,-100,-100,-100,0,0,100,0.00,40.00,0,-999,0,0.00
2013-4-21,61,50,37,-100,-100,-100,0,0,100,0.00,40.00,0,-999,0,0.00
2013-4-22,61,45,26,-100,-100,-100,0,0,100,0.00,40.00,0,-999,0,0.00
2013-4-23,62,48,28,-100,-100,-100,0,0,100,0.00,40.00,0,-999,0,0.00
2013-4-24,71,55,29,-100,-100,-100,0,0,100,0.00,40.00,0,-999,0,0.00
2013-4-25,75,62,39,-100,-100,-100,0,0,100,0.00,40.00,0,-999,0,0.00
2013-4-26,78,61,47,-100,-100,-100,0,0,100,0.00,40.00,0,-999,0,0.00
2013-4-27,71,58,38,-100,-100,-100,0,0,100,0.00,40.00,0,-999,0,0.00
2013-4-28,66,55,37,-100,-100,-100,0,0,100,0.00,40.00,0,-999,0,0.00
2013-4-29,59,50,42,-100,-100,-100,0,0,100,0.00,40.00,0,-999,0,0.00
2013-4-30,57,50,41,-100,-100,-100,0,0,100,0.00,40.00,0,-999,0,0.00
2013-5-1,64,50,26,-100,-100,-100,0,0,100,0.00,40.00,0,-999,0,0.00
2013-5-2,73,60,31,-100,-100,-100,0,0,100,0.00,40.00,0,-999,0,0.00
2013-5-3,78,64,37,-100,-100,-100,0,0,100,0.00,40.00,0,-999,0,0.00
2013-5-4,81,62,37,-100,-100,-100,0,0,100,0.00,40.00,0,-999,0,0.00
2013-5-5,84,66,37,-100,-100,-100,0,0,100,0.00,40.00,0,-999,0,0.00
2013-5-6,84,62,38,-100,-100,-100,0,0,100,0.00,40.00,0,-999,0,0.00
2013-5-7,90,74,43,-100,-100,-100,0,0,100,0.00,40.00,0,-999,0,0.00
2013-5-8,90,72,45,-100,-100,-100,0,0,100,0.00,40.00,0,-999,0,0.00
2013-5-9,91,78,42,-100,-100,-100,0,0,100,0.00,40.00,0,-999,0,0.00
2013-5-10,93,76,41,-100,-100,-100,0,0,100,0.00,40.00,0,-999,0,0.00
2013-5-11,90,74,52,-100,-100,-100,0,0,100,0.00,40.00,0,-999,0,0.00
2013-5-12,81,70,54,-100,-100,-100,0,0,100,0.00,40.00,0,-999,0,0.00
2013-5-13,71,61,43,-100,-100,-100,0,0,100,0.00,40.00,0,-999,0,0.00
2013-5-14,69,52,39,-100,-100,-100,0,0,100,0.00,40.00,0,-999,0,0.00
2013-5-15,72,63,39,-100,-100,-100,0,0,100,0.00,40.00,0,-999,0,0.00
2013-5-16,73,59,48,-100,-100,-100,0,0,100,0.00,40.00,0,-999,0,0.00
2013-5-17,70,59,44,-100,-100,-100,0,0,100,0.00,40.00,0,-999,0,0.00
2013-5-18,73,62,56,-100,-100,-100,0,0,100,0.00,40.00,0,-999,0,0.00
2013-5-19,78,60,44,-100,-100,-100,0,0,100,0.00,40.00,0,-999,0,0.00
2013-5-20,77,64,38,-100,-100,-100,0,0,100,0.00,40.00,0,-999,0,0.00
2013-5-21,54,51,43,-100,-100,-100,0,0,100,0.00,40.00,0,-999,0,0.00
2013-5-22,48,44,39,-100,-100,-100,0,0,100,0.00,40.00,0,-999,0,0.00
2013-5-23,58,49,43,-100,-100,-100,0,0,100,0.00,40.00,0,-999,0,0.00
2013-5-24,66,50,39,-100,-100,-100,0,0,100,0.00,40.00,0,-999,0,0.00
2013-5-25,73,56,37,-100,-100,-100,0,0,100,0.00,40.00,0,-999,0,0.00
2013-5-26,71,56,40,-100,-100,-100,0,0,100,0.00,40.00,0,-999,0,0.00
2013-5-27,61,53,40,-100,-100,-100,0,0,100,0.00,40.00,0,-999,0,0.00
2013-5-28,70,57,45,-100,-100,-100,0,0,100,0.00,40.00,0,-999,0,0.00
2013-5-29,62,52,44,-100,-100,-100,0,0,100,0.00,40.00,0,-999,0,0.00
2013-5-30,41,39,38,-100,-100,-100,0,0,100,0.00,40.00,0,-999,0,0.00
2013-5-31,74,71,55,-100,-100,-100,0,0,100,0.00,40.00,0,-999,0,0.00
2013-6-1,75,66,42,-100,-100,-100,0,0,100,0.00,40.00,0,-999,0,0.00
2013-6-2,76,64,45,-100,-100,-100,0,0,100,0.00,40.00,0,-999,0,0.00
2013-6-3,83,62,42,-100,-100,-100,0,0,100,0.00,40.00,0,-999,0,0.00
2013-6-4,86,69,43,-100,-100,-100,0,0,100,0.00,40.00,0,-999,0,0.00
2013-6-5,88,72,48,-100,-100,-100,0,0,100,0.00,40.00,0,-999,0,0.00
2013-6-6,90,78,47,-100,-100,-100,0,0,100,0.00,40.00,0,-999,0,0.00
2013-6-7,83,70,62,-100,-100,-100,0,0,100,0.00,40.00,0,-999,0,0.00
2013-6-8,85,69,54,-100,-100,-100,0,0,100,0.00,40.00,0,-999,0,0.00
2013-6-9,80,68,60,-100,-100,-100,0,0,100,0.00,40.00,0,-999,0,0.00
2013-6-10,80,63,41,-100,-100,-100,0,0,100,0.00,40.00,0,-999,0,0.00
2013-6-11,73,62,43,-100,-100,-100,0,0,100,0.00,40.00,0,-999,0,0.00
2013-6-12,77,57,42,-100,-100,-100,0,0,100,0.00,40.00,0,-999,0,0.00
2013-6-13,75,59,40,-100,-100,-100,0,0,100,0.00,40.00,0,-999,0,0.00
2013-6-14,77,65,56,-100,-100,-100,0,0,100,0.00,40.00,0,-999,0,0.00
2013-6-15,82,68,41,-100,-100,-100,0,0,100,0.00,40.00,0,-999,0,0.00
2013-6-16,83,67,46,-100,-100,-100,0,0,100,0.00,40.00,0,-999,0,0.00
2013-6-17,89,69,55,-100,-100,-100,0,0,100,0.00,40.00,0,-999,0,0.00
2013-6-18,71,62,53,-100,-100,-100,0,0,100,0.00,40.00,0,-999,0,0.00
2013-6-19,69,61,54,-100,-100,-100,0,0,100,0.00,40.00,0,-999,0,0.00
2013-6-20,64,60,56,-100,-100,-100,0,0,100,0.00,40.00,0,-999,0,0.00
2013-6-22,82,77,70,-100,-100,-100,0,0,100,0.00,40.00,0,-999,0,0.00
2013-6-23,78,66,51,-100,-100,-100,0,0,100,0.00,40.00,0,-999,0,0.00
2013-6-24,70,62,55,-100,-100,-100,0,0,100,0.00,40.00,0,-999,0,0.00
2013-6-25,68,56,46,-100,-100,-100,0,0,100,0.00,40.00,0,-999,0,0.00
2013-6-26,76,63,47,-100,-100,-100,0,0,100,0.00,40.00,0,-999,0,0.00
2013-6-27,78,64,53,-100,-100,-100,0,0,100,0.00,40.00,0,-999,0,0.00
2013-6-28,89,70,53,-100,-100,-100,0,0,100,0.00,40.00,0,-999,0,0.00
2013-6-29,82,67,57,-100,-100,-100,0,0,100,0.00,40.00,0,-999,0,0.00
2013-6-30,95,77,53,-100,-100,-100,0,0,100,0.00,40.00,0,-999,0,0.00
2013-7-1,94,86,74,-100,-100,-100,0,0,100,0.00,40.00,0,-999,0,0.00
2013-7-2,104,92,70,-100,-100,-100,0,0,100,0.00,40.00,0,-999,0,0.00
2013-7-3,94,81,70,-100,-100,-100,0,0,100,0.00,40.00,0,-999,0,0.00
2013-7-4,86,75,61,-100,-100,-100,0,0,100,0.00,40.00,0,-999,0,0.00
2013-7-5,85,72,55,-100,-100,-100,0,0,100,0.00,40.00,0,-999,0,0.00
2013-7-6,89,76,58,-100,-100,-100,0,0,100,0.00,40.00,0,-999,0,0.00
2013-7-7,88,86,84,-100,-100,-100,0,0,100,0.00,40.00,0,-999,0,0.00
2013-7-8,89,61,52,-100,-100,-100,0,0,100,0.00,40.00,0,-999,0,0.00
2013-7-9,93,92,91,-100,-100,-100,0,0,100,0.00,40.00,0,-999,0,0.00
2013-7-10,86,78,70,-100,-100,-100,0,0,100,0.00,40.00,0,-999,0,0.00
2013-7-11,82,72,65,-100,-100,-100,0,0,100,0.00,40.00,0,-999,0,0.00
2013-7-12,76,64,54,-100,-100,-100,0,0,100,0.00,40.00,0,-999,0,0.00
2013-7-13,84,66,45,-100,-100,-100,0,0,100,0.00,40.00,0,-999,0,0.00
2013-7-14,91,85,78,-100,-100,-100,0,0,100,0.00,40.00,0,-999,0,0.00
2013-7-15,86,71,51,-100,-100,-100,0,0,100,0.00,40.00,0,-999,0,0.00
2013-7-16,90,80,64,-100,-100,-100,0,0,100,0.00,40.00,0,-999,0,0.00
2013-7-17,92,79,60,-100,-100,-100,0,0,100,0.00,40.00,0,-999,0,0.00
2013-7-18,95,93,92,-100,-100,-100,0,0,100,0.00,40.00,0,-999,0,0.00
2013-7-19,99,93,83,-100,-100,-100,0,0,100,0.00,40.00,0,-999,0,0.00
2013-7-20,98,84,71,-100,-100,-100,0,0,100,0.00,40.00,0,-999,0,0.00
2013-7-21,97,82,64,-100,-100,-100,0,0,100,0.00,40.00,0,-999,0,0.00
2013-7-22,96,85,75,-100,-100,-100,0,0,100,0.00,40.00,0,-999,0,0.00
2013-7-23,99,98,96,-100,-100,-100,0,0,100,0.00,40.00,0,-999,0,0.00
2013-7-27,90,79,69,-100,-100,-100,0,0,100,0.00,40.00,0,-999,0,0.00
2013-7-28,89,79,58,-100,-100,-100,0,0,100,0.00,40.00,0,-999,0,0.00
2013-7-29,90,87,86,-100,-100,-100,0,0,100,0.00,40.00,0,-999,0,0.00
2013-7-30,90,76,55,-100,-100,-100,0,0,100,0.00,40.00,0,-999,0,0.00
2013-7-31,91,81,73,-100,-100,-100,0,0,100,0.00,40.00,0,-999,0,0.00
2013-8-1,90,71,62,-100,-100,-100,0,0,100,0.00,40.00,0,-999,0,0.00
2013-8-2,79,68,58,-100,-100,-100,0,0,100,0.00,40.00,0,-999,0,0.00
2013-8-3,83,73,61,-100,-100,-100,0,0,100,0.00,40.00,0,-999,0,0.00
2013-8-4,92,76,53,-100,-100,-100,0,0,100,0.00,40.00,0,-999,0,0.00
2013-8-5,93,77,53,-100,-100,-100,0,0,100,0.00,40.00,0,-999,0,0.00
2013-8-6,97,90,64,-100,-100,-100,0,0,100,0.00,40.00,0,-999,0,0.00
2013-8-7,97,87,67,-100,-100,-100,0,0,100,0.00,40.00,0,-999,0,0.00
2013-8-8,95,80,63,-100,-100,-100,0,0,100,0.00,40.00,0,-999,0,0.00
2013-8-9,99,91,78,-100,-100,-100,0,0,100,0.00,40.00,0,-999,0,0.00
2013-8-10,92,81,64,-100,-100,-100,0,0,100,0.00,40.00,0,-999,0,0.00
2013-8-11,87,72,57,-100,-100,-100,0,0,100,0.00,40.00,0,-999,0,0.00
2013-8-12,90,69,53,-100,-100,-100,0,0,100,0.00,40.00,0,-999,0,0.00
2013-8-13,91,80,53,-100,-100,-100,0,0,100,0.00,40.00,0,-999,0,0.00
2013-8-14,91,81,70,-100,-100,-100,0,0,100,0.00,40.00,0,-999,0,0.00
2013-8-15,88,75,65,-100,-100,-100,0,0,100,0.00,40.00,0,-999,0,0.00
2013-8-16,87,72,52,-100,-100,-100,0,0,100,0.00,40.00,0,-999,0,0.00
2013-8-17,85,78,65,-100,-100,-100,0,0,100,0.00,40.00,0,-999,0,0.00
2013-8-18,89,72,53,-100,-100,-100,0,0,100,0.00,40.00,0,-999,0,0.00
2013-8-19,80,70,60,-100,-100,-100,0,0,100,0.00,40.00,0,-999,0,0.00
2013-8-20,85,69,54,-100,-100,-100,0,0,100,0.00,40.00,0,-999,0,0.00
2013-8-21,88,86,84,-100,-100,-100,0,0,100,0.00,40.00,0,-999,0,0.00
2013-8-22,90,73,59,-100,-100,-100,0,0,100,0.00,40.00,0,-999,0,0.00
2013-8-23,83,68,63,-100,-100,-100,0,0,100,0.00,40.00,0,-999,0,0.00
2013-8-24,82,72,61,-100,-100,-100,0,0,100,0.00,40.00,0,-999,0,0.00
2013-8-25,80,68,56,-100,-100,-100,0,0,100,0.00,40.00,0,-999,0,0.00
2013-8-26,79,66,50,-100,-100,-100,0,0,100,0.00,40.00,0,-999,0,0.00
2013-8-27,60,56,51,-100,-100,-100,0,0,100,0.00,40.00,0,-999,0,0.00
2013-8-28,88,77,64,-100,-100,-100,0,0,100,0.00,40.00,0,-999,0,0.00
2013-8-29,81,69,58,-100,-100,-100,0,0,100,0.00,40.00,0,-999,0,0.00
2013-8-30,81,68,52,-100,-100,-100,0,0,100,0.00,40.00,0,-999,0,0.00
2013-8-31,84,77,62,-100,-100,-100,0,0,100,0.00,40.00,0,-999,0,0.00
2013-9-1,91,81,49,-100,-100,-100,0,0,100,0.00,40.00,0,-999,0,0.00
2013-9-2,90,89,87,-100,-100,-100,0,0,100,0.00,40.00,0,-999,0,0.00
2013-9-3,89,82,65,-100,-100,-100,0,0,100,0.00,40.00,0,-999,0,0.00
2013-9-4,88,72,59,-100,-100,-100,0,0,100,0.00,40.00,0,-999,0,0.00
2013-9-5,87,73,63,-100,-100,-100,0,0,100,0.00,40.00,0,-999,0,0.00
2013-9-6,69,62,55,-100,-100,-100,0,0,100,0.00,40.00,0,-999,0,0.00
2013-9-7,61,58,55,-100,-100,-100,0,0,100,0.00,40.00,0,-999,0,0.00
2013-9-8,81,64,47,-100,-100,-100,0,0,100,0.00,40.00,0,-999,0,0.00
2013-9-9,86,76,56,-100,-100,-100,0,0,100,0.00,40.00,0,-999,0,0.00
2013-9-10,86,79,63,-100,-100,-100,0,0,100,0.00,40.00,0,-999,0,0.00
2013-9-11,89,75,51,-100,-100,-100,0,0,100,0.00,40.00,0,-999,0,0.00
2013-9-12,82,82,82,-100,-100,-100,0,0,100,0.00,40.00,0,-999,0,0.00
2013-9-13,94,87,72,-100,-100,-100,0,0,100,0.00,40.00,0,-999,0,0.00
2013-9-14,92,80,68,-100,-100,-100,0,0,100,0.00,40.00,0,-999,0,0.00
2013-9-15,90,80,61,-100,-100,-100,0,0,100,0.00,40.00,0,-999,0,0.00
2013-9-16,76,64,56,-100,-100,-100,0,0,100,0.00,40.00,0,-999,0,0.00
2013-9-17,72,62,49,-100,-100,-100,0,0,100,0.00,40.00,0,-999,0,0.00
2013-9-18,60,58,58,-100,-100,-100,0,0,100,0.00,40.00,0,-999,0,0.00
2013-9-19,72,59,38,-100,-100,-100,0,0,100,0.00,40.00,0,-999,0,0.00
2013-9-20,75,63,39,-100,-100,-100,0,0,100,0.00,40.00,0,-999,0,0.00
2013-9-21,72,62,54,-100,-100,-100,0,0,100,0.00,40.00,0,-999,0,0.00
2013-9-22,66,57,42,-100,-100,-100,0,0,100,0.00,40.00,0,-999,0,0.00
2013-9-23,62,54,43,-100,-100,-100,0,0,100,0.00,40.00,0,-999,0,0.00
2013-9-24,65,54,44,-100,-100,-100,0,0,100,0.00,40.00,0,-999,0,0.00
2013-9-25,67,54,42,-100,-100,-100,0,0,100,0.00,40.00,0,-999,0,0.00
2013-9-26,63,53,46,-100,-100,-100,0,0,100,0.00,40.00,0,-999,0,0.00
2013-9-27,60,50,42,-100,-100,-100,0,0,100,0.00,40.00,0,-999,0,0.00
2013-9-28,56,50,43,-100,-100,-100,0,0,100,0.00,40.00,0,-999,0,0.00
2013-9-29,59,52,44,-100,-100,-100,0,0,100,0.00,40.00,0,-999,0,0.00
2013-9-30,58,48,40,-100,-100,-100,0,0,100,0.00,40.00,0,-999,0,0.00
2013-10-2,51,43,37,-100,-100,-100,0,0,100,0.00,40.00,0,-999,0,0.00
2013-10-3,59,47,33,-100,-100,-100,0,0,100,0.00,40.00,0,-999,0,0.00
2013-10-4,60,45,31,-100,-100,-100,0,0,100,0.00,40.00,0,-999,0,0.00
2013-10-5,64,48,37,-100,-100,-100,0,0,100,0.00,40.00,0,-999,0,0.00
2013-10-6,62,49,37,-100,-100,-100,0,0,100,0.00,40.00,0,-999,0,0.00
2013-10-7,64,47,38,-100,-100,-100,0,0,100,0.00,40.00,0,-999,0,0.00
2013-10-8,56,45,40,-100,-100,-100,0,0,100,0.00,40.00,0,-999,0,0.00
2013-10-9,55,44,31,-100,-100,-100,0,0,100,0.00,40.00,0,-999,0,0.00
2013-10-10,62,53,39,-100,-100,-100,0,0,100,0.00,40.00,0,-999,0,0.00
2013-10-11,57,46,33,-100,-100,-100,0,0,100,0.00,40.00,0,-999,0,0.00
2013-10-15,60,45,29,-100,-100,-100,0,0,100,0.00,40.00,0,-999,0,0.00
2013-10-16,61,50,41,-100,-100,-100,0,0,100,0.00,40.00,0,-999,0,0.00
2013-10-17,55,47,33,-100,-100,-100,0,0,100,0.00,40.00,0,-999,0,0.00
2013-10-18,55,49,32,-100,-100,-100,0,0,100,0.00,40.00,0,-999,0,0.00
2013-10-19,60,42,31,-100,-100,-100,0,0,100,0.00,40.00,0,-999,0,0.00
2013-10-20,54,41,34,-100,-100,-100,0,0,100,0.00,40.00,0,-999,0,0.00
2013-10-21,57,45,36,-100,-100,-100,0,0,100,0.00,40.00,0,-999,0,0.00
2013-10-22,54,40,35,-100,-100,-100,0,0,100,0.00,40.00,0,-999,0,0.00
2013-10-23,36,34,34,-100,-100,-100,0,0,100,0.00,40.00,0,-999,0,0.00
2013-10-24,48,40,33,-100,-100,-100,0,0,100,0.00,40.00,0,-999,0,0.00
2013-10-25,54,40,32,-100,-100,-100,0,0,100,0.00,40.00,0,-999,0,0.00
2013-10-26,46,37,32,-100,-100,-100,0,0,100,0.00,40.00,0,-999,0,0.00
2013-10-27,51,44,37,-100,-100,-100,0,0,100,0.00,40.00,0,-999,0,0.00
2013-10-28,53,50,43,-100,-100,-100,0,0,100,0.00,40.00,0,-999,0,0.00
2013-10-29,39,31,25,-100,-100,-100,0,0,100,0.00,40.00,0,-999,0,0.00
2013-10-30,49,34,24,-100,-100,-100,0,0,100,0.00,40.00,0,-999,0,0.00
2013-10-31,61,44,31,-100,-100,-100,0,0,100,0.00,40.00,0,-999,0,0.00
2013-11-1,57,44,33,-100,-100,-100,0,0,100,0.00,40.00,0,-999,0,0.00
2013-11-2,51,45,41,-100,-100,-100,0,0,100,0.00,40.00,0,-999,0,0.00
2013-11-3,46,38,29,-100,-100,-100,0,0,100,0.00,40.00,0,-999,0,0.00
2013-11-4,32,28,23,-100,-100,-100,0,0,100,0.00,40.00,0,-999,0,0.00
2013-11-5,41,36,32,-100,-100,-100,0,0,100,0.00,40.00,0,-999,0,0.00
2013-11-6,42,38,35,-100,-100,-100,0,0,100,0.00,40.00,0,-999,0,0.00
2013-11-7,40,37,34,-100,-100,-100,0,0,100,0.00,40.00,0,-999,0,0.00
2013-11-8,43,36,30,-100,-100,-100,0,0,100,0.00,40.00,0,-999,0,0.00
2013-11-9,42,33,27,-100,-100,-100,0,0,100,0.00,40.00,0,-999,0,0.00
2013-11-10,44,40,37,-100,-100,-100,0,0,100,0.00,40.00,0,-999,0,0.00
2013-11-11,48,43,40,-100,-100,-100,0,0,100,0.00,40.00,0,-999,0,0.00
2013-11-12,50,46,43,-100,-100,-100,0,0,100,0.00,40.00,0,-999,0,0.00
2013-11-13,47,42,39,-100,-100,-100,0,0,100,0.00,40.00,0,-999,0,0.00
2013-11-14,40,38,36,-100,-100,-100,0,0,100,0.00,40.00,0,-999,0,0.00
2013-11-15,49,42,32,-100,-100,-100,0,0,100,0.00,40.00,0,-999,0,0.00
2013-11-16,44,35,29,-100,-100,-100,0,0,100,0.00,40.00,0,-999,0,0.00
2013-11-17,44,36,27,-100,-100,-100,0,0,100,0.00,40.00,0,-999,0,0.00
2013-11-18,45,38,32,-100,-100,-100,0,0,100,0.00,40.00,0,-999,0,0.00
2013-11-19,37,36,35,-100,-100,-100,0,0,100,0.00,40.00,0,-999,0,0.00
2013-11-20,32,28,20,-100,-100,-100,0,0,100,0.00,40.00,0,-999,0,0.00
2013-11-21,14,13,13,-100,-100,-100,0,0,100,0.00,40.00,0,-999,0,0.00
2013-11-22,28,20,14,-100,-100,-100,0,0,100,0.00,40.00,0,-999,0,0.00
2013-11-23,13,13,13,-100,-100,-100,0,0,100,0.00,40.00,0,-999,0,0.00
2013-11-24,33,24,17,-100,-100,-100,0,0,100,0.00,40.00,0,-999,0,0.00
2013-11-25,37,26,19,-100,-100,-100,0,0,100,0.00,40.00,0,-999,0,0.00
2013-11-26,36,26,20,-100,-100,-100,0,0,100,0.00,40.00,0,-999,0,0.00
2013-11-27,31,25,21,-100,-100,-100,0,0,100,0.00,40.00,0,-999,0,0.00
2013-11-28,30,26,22,-100,-100,-100,0,0,100,0.00,40.00,0,-999,0,0.00
2013-11-29,33,30,27,-100,-100,-100,0,0,100,0.00,40.00,0,-999,0,0.00
2013-11-30,36,34,32,-100,-100,-100,0,0,100,0.00,40.00,0,-999,0,0.00
2013-12-1,37,34,32,-100,-100,-100,0,0,100,0.00,40.00,0,-999,0,0.00
2013-12-2,38,34,29,-100,-100,-100,0,0,100,0.00,40.00,0,-999,0,0.00
2013-12-3,24,19,14,-100,-100,-100,0,0,100,0.00,40.00,0,-999,0,0.00
2013-12-4,20,16,10,-100,-100,-100,0,0,100,0.00,40.00,0,-999,0,0.00
2013-12-5,22,18,11,-100,-100,-100,0,0,100,0.00,40.00,0,-999,0,0.00
2013-12-6,22,18,16,-100,-100,-100,0,0,100,0.00,40.00,0,-999,0,0.00
2013-12-8,15,10,7,-100,-100,-100,0,0,100,0.00,40.00,0,-999,0,0.00
2013-12-9,16,8,3,-100,-100,-100,0,0,100,0.00,40.00,0,-999,0,0.00
2013-12-10,17,11,6,-100,-100,-100,0,0,100,0.00,40.00,0,-999,0,0.00
2013-12-11,28,21,13,-100,-100,-100,0,0,100,0.00,40.00,0,-999,0,0.00
2013-12-12,30,23,16,-100,-100,-100,0,0,100,0.00,40.00,0,-999,0,0.00
2013-12-13,23,21,14,-100,-100,-100,0,0,100,0.00,40.00,0,-999,0,0.00
2013-12-14,33,26,21,-100,-100,-100,0,0,100,0.00,40.00,0,-999,0,0.00
2013-12-15,32,28,25,-100,-100,-100,0,0,100,0.00,40.00,0,-999,0,0.00
2013-12-16,31,27,23,-100,-100,-100,0,0,100,0.00,40.00,0,-999,0,0.00
2013-12-17,33,30,27,-100,-100,-100,0,0,100,0.00,40.00,0,-999,0,0.00
2013-12-18,37,32,29,-100,-100,-100,0,0,100,0.00,40.00,0,-999,0,0.00
2013-12-19,28,24,18,-100,-100,-100,0,0,100,0.00,40.00,0,-999,0,0.00
2013-12-20,26,20,13,-100,-100,-100,0,0,100,0.00,40.00,0,-999,0,0.00
2013-12-21,27,21,16,-100,-100,-100,0,0,100,0.00,40.00,0,-999,0,0.00
2013-12-22,32,22,16,-100,-100,-100,0,0,100,0.00,40.00,0,-999,0,0.00
2013-12-23,43,29,20,-100,-100,-100,0,0,100,0.00,40.00,0,-999,0,0.00
2013-12-24,32,27,22,-100,-100,-100,0,0,100,0.00,40.00,0,-999,0,0.00
2013-12-25,33,27,16,-100,-100,-100,0,0,100,0.00,40.00,0,-999,0,0.00
2013-12-26,37,31,27,-100,-100,-100,0,0,100,0.00,40.00,0,-999,0,0.00
2013-12-27,34,30,24,-100,-100,-100,0,0,100,0.00,40.00,0,-999,0,0.00
2013-12-28,29,25,21,-100,-100,-100,0,0,100,0.00,40.00,0,-999,0,0.00
2013-12-29,29,28,26,-100,-100,-100,0,0,100,0.00,40.00,0,-999,0,0.00
2013-12-30,33,30,28,-100,-100,-100,0,0,100,0.00,40.00,0,-999,0,0.00
2013-12-31,31,27,21,-100,-100,-100,0,0,100,0.00,40.00,0,-999,0,0.00
2014-1-1,30,28,25,-100,-100,-100,0,0,100,0.00,40.00,0,-999,0,0.00
2014-1-2,36,30,24,-100,-100,-100,0,0,100,0.00,40.00,0,-999,0,0.00